Regional Weather Roundup
Issued by NWS Kansas City/Pleasant Hill, MO

Home | Current Version | Previous Version | Text Only | Print | Product List | Glossary On
Versions: 1 2 3 4 5 6 7 8 9 10 11 12 13 14 15 16 17 18 19 20 21 22 23 24 25 26 27 28 29 30 31 32 33 34 35 36 37 38 39 40 41 42 43 44 45 46 47 48 49 50
270
ASUS43 KEAX 250410
RWREAX

WEATHER ROUNDUP FOR EASTERN KANSAS AND NORTHWEST MISSOURI
NATIONAL WEATHER SERVICE KANSAS CITY/PLEASANT HILL MO
1000 PM CST FRI FEB 24 2017

KSZ040-057-103>105-MOZ028-029-037-043-250500-
...KANSAS CITY METROPOLITAN AREA...

CITY           SKY/WX    TMP DP  RH WIND       PRES   REMARKS
K.C. INTL      MOCLDY    24  20  84 NW10      30.03R WCI  14
K.C. DOWNTOWN  CLOUDY    27  19  72 NW15G21   30.05R WCI  15
LEES SUMMIT    FLURRIES  27  18  69 NW14G24   30.03R WCI  16
OLATHE - IXD   CLEAR     24  18  77 NW14      30.07R WCI  12
OLATHE - OJC   PTCLDY    24  19  81 NW13      30.05R WCI  12
LAWRENCE       CLEAR     25  19  78 W12       30.08R WCI  14

$$

MOZ001>008-011>017-020>025-030>033-038>040-044>046-053-054-250500-
...NORTHERN AND CENTRAL MISSOURI...

CITY           SKY/WX    TMP DP  RH WIND       PRES   REMARKS
ST. JOSEPH     CLEAR     23  20  88 W10       30.04R WCI  12
MOSBY          PTCLDY    27  21  80 NW13      30.03R WCI  16
WARRENSBURG    CLOUDY    30  21  69 W16G23    30.02R WCI  19
WHITEMAN AFB   CLOUDY    29  19  65 NW20G28   29.99R WCI  16
CLINTON        CLOUDY    30  19  64 NW13      30.02R WCI  20
SEDALIA        CLOUDY    30  18  60 NW22G31   29.99R WCI  17
WARSAW         NOT AVBL
CHILLICOTHE      N/A     26  20  77 NW13G21   29.98R WCI  15
KIRKSVILLE     LGT SNOW  25  21  85 W16G24    29.88R FOG     WCI  12

$$

MOZ041-047>049-056>058-063>065-088>090-097-250500-
...EASTERN AND SOUTHERN MISSOURI...

CITY           SKY/WX    TMP DP  RH WIND       PRES   REMARKS
ST. LOUIS INTL MOCLDY    40  25  55 NW23G37   29.81R WCI  30
SPIRIT OF STL  CLOUDY    38  25  59 W21G36    29.83R WCI  28
COLUMBIA       CLOUDY    30  21  69 NW23G30   29.91R WCI  17
JEFFERSON CITY CLOUDY    32  20  61 W26G32    29.94R WCI  18
ROLLA          CLOUDY    32  21  64 W22G33    29.89R WCI  19
OSAGE BEACH    CLOUDY    33  20  58 W16G24    29.96R WCI  23
SPRINGFIELD    CLOUDY    33  20  58 NW17G24   29.98R WCI  22
BRANSON        CLOUDY    34  19  55 W15G25    30.00R WCI  24
JOPLIN         CLOUDY    32  21  64 NW16G25   30.07R WCI  21
WEST PLAINS    PTCLDY    38  25  59 W15       29.91R WCI  29

$$

IAZ060-094-KSZ022-034>040-054-083-096-NEZ052-066-093-250500-
...KANSAS...SOUTHEAST NEBRASKA AND IOWA...

CITY           SKY/WX    TMP DP  RH WIND       PRES   REMARKS
TOPEKA         CLEAR     25  20  81 W8        30.10R WCI  16
MANHATTAN      CLEAR     26  17  68 W6        30.13R WCI  19
EMPORIA        PTCLDY    25  17  72 NW14      30.11R WCI  13
CHANUTE        CLOUDY    31  20  63 NW16G28   30.11R WCI  20
WICHITA        PTCLDY    27  16  63 N16G23    30.16R WCI  15
OMAHA          PTCLDY    24  15  68 NW14      30.02R WCI  12
LINCOLN        CLOUDY    25  18  74 NW12G20   30.08R WCI  14
FALLS CITY     CLEAR     25  17  72 NW15      30.04R WCI  13
LAMONI         MOCLDY    24  17  74 NW18      29.91R WCI  10
DES MOINES     FLURRIES  25  18  74 NW18G28   29.90R WCI  11

$$





USA.gov is the U.S. government's official web portal to all federal, state and local government web resources and services.